Regional Weather Roundup
Issued by NWS Sterling, VA

Home | Current Version | Previous Version | Text Only | Print | Product List | Glossary Off
Versions: 1 2 3 4 5 6 7 8 9 10 11 12 13 14 15 16 17 18 19 20 21 22 23 24 25 26 27 28 29 30 31 32 33 34 35 36 37 38 39 40 41 42 43 44 45 46 47 48 49 50

000
ASUS41 KLWX 241010
RWRLWX

REGIONAL WEATHER ROUNDUP
NATIONAL WEATHER SERVICE BALTIMORE MD/WASHINGTON DC
600 AM EDT THU JUL 24 2014

Note: "FAIR" indicates few or no clouds below 12,000 feet
with no significant weather and/or obstructions to visibility.
 TC=TEMPERATURE CELSIUS

 * =Non NWS site. Station does not report precipitation (e.g. rain,
    snow, etc.), thunder, or fog.

DCZ001-MDZ009-015-VAZ040>042-051-053>054-241100-
WASHINGTON METRO
  /KDAA//-FT BELVOIR

CITY           SKY/WX    TMP DP  RH WIND       PRES   REMARKS
WASHINGTON NAT CLOUDY    76  70  82 N6        29.88S
DULLES         CLOUDY    71  68  90 N7        29.89S
ANDREWS AFB    DRIZZLE   73  70  92 N6        29.88R
QUANTICO       LGT RAIN  74  69  85 N7        29.88R
COLLEGE PARK*  CLOUDY    73  72  94 N3        29.87S
LEESBURG*      CLOUDY    72  72 100 NE5       29.90S
MANASSAS*      CLOUDY    72  70  94 N5        29.88S
GAITHERSBURG*  CLOUDY    72  68  88 CALM      29.93R

$$

MDZ006>007-011-014-241100-
BALTIMORE METRO

CITY           SKY/WX    TMP DP  RH WIND       PRES   REMARKS
BWI AIRPORT    LGT RAIN  72  68  87 CALM      29.87R
MD SCIENCE CTR   N/A     74  66  76 MISG      29.88R
MARTIN STATE   LGT RAIN  73  70  88 CALM      29.88S
ANNAPOLIS      LGT RAIN  74  70  87 N6        29.87S
FORT MEADE*    CLOUDY    72  68  88 CALM      29.90S

$$

MDZ012-015-019>023-241100-
MARYLAND EASTERN SHORE

CITY           SKY/WX    TMP DP  RH WIND       PRES   REMARKS
OCEAN CITY     CLOUDY    72  70  93 CALM      29.83R
SALISBURY      NOT AVBL
BAY BRIDGE AP* RAIN      73  70  88 NE5       29.87S
CAMBRIDGE*     CLOUDY    77  72  83 N8        29.85R
EASTON*        RAIN      74  74 100 N3        29.90R

$$

MDZ017>025-241100-
SOUTHERN MARYLAND

CITY           SKY/WX    TMP DP  RH WIND       PRES   REMARKS
PATUXENT RIVER LGT RAIN  76  71  85 N12       29.85R FOG
ST INIGOES     LGT RAIN  76  70  82 VRB5      29.84R
LEONARDTOWN*   CLOUDY    73  70  88 NW5       29.88R

$$

MDZ003>005-241100-
NORTH CENTRAL MARYLAND

CITY           SKY/WX    TMP DP  RH WIND       PRES   REMARKS
FREDERICK*     CLOUDY    70  70 100 CALM      29.92R FOG
HAGERSTOWN APT CLOUDY    70  64  81 N6        29.90F
WESTMINSTER*   LGT RAIN  68  66  94 N7        29.90S

$$

MDZ501>502-241100-
WESTERN MARYLAND

CITY           SKY/WX    TMP DP  RH WIND       PRES   REMARKS
OAKLAND*       FOG       59 N/A N/A N5        30.01S VSB 1/4
CUMBERLAND*    CLOUDY    70  61  73 N5        29.97R

$$

VAZ025>031-241100-
SHENANDOAH VALLEY

CITY           SKY/WX    TMP DP  RH WIND       PRES   REMARKS
WINCHESTER*    CLOUDY    70  64  83 NW6       29.92R
STAUNTON*      RAIN      70  68  94 W3        29.94S

$$

WVZ021-048>050-054>055-241100-
EASTERN WEST VIRGINIA PANHANDLE

CITY           SKY/WX    TMP DP  RH WIND       PRES   REMARKS
MARTINSBURG    CLOUDY    71  62  73 N10       29.91S
PETERSBURG*    CLOUDY    70  65  86 CALM      29.93S HAZE

$$

VAZ036>039-050-241100-
CENTRAL FOOTHILLS

CITY           SKY/WX    TMP DP  RH WIND       PRES   REMARKS
CHARLOTTESVILL CLOUDY    71  69  93 CALM      29.89R FOG
ORANGE*        CLOUDY    72  68  88 N3        29.90R

$$

VAZ055>057-241100-
NORTH AND CENTRAL PIEDMONT

CITY           SKY/WX    TMP DP  RH WIND       PRES   REMARKS
FREDERICKSBRG* CLOUDY    74  73  97 NW3       29.87R
STAFFORD*      DRIZZLE   72  72 100 N7        29.92S

$$

NCZ024-NYZ072-PAZ021-071-VAZ022-071-241100-
OTHER REGIONAL OBSERVATIONS

CITY           SKY/WX    TMP DP  RH WIND       PRES   REMARKS
NEW YORK CITY  CLOUDY    73  63  70 VRB3      29.85S
PHILADELPHIA   LGT RAIN  72  62  71 N13       29.86R
PITTSBURGH     PTCLDY    62  58  86 N9        30.00S
ROANOKE        CLOUDY    72  66  83 CALM      29.95R
RICHMOND       LGT RAIN  76  70  82 NW10      29.87R
RALEIGH        PTCLDY    75  71  87 SW8       29.89S

$$

ANZ530>537-241100-
MARINE OBSERVATIONS

STATION/POSITION TIME  TEMP    WIND        PRES
                       AIR SEA DIR/SP/G
                 (UTC) (F)     (DEG/KT/KT) (MB)
THOMAS PT LIGHT  0900   76 80  360/ 12/ 13 1011.5R
BALT KEY BRIDGE  0900   75     340/  7/  9 1011.2R
COVE POINT       0900   78     360/ 13/ 15 1010.5R
LEWISETTA        0900   77 82  340/  5/  7 1010.5R
SOLOMONS ISLAND  0900      82                N/A
PINEY POINT      0900          360/  9/ 10   N/A

$$




USA.gov is the U.S. government's official web portal to all federal, state and local government web resources and services.